Weather History for KDRM - December, 2012

Change the Weather History Date:

Monday, December 3, 2012

  Actual Average (KCIU) Record (KCIU)
Temperature  
Mean Temperature 41 °F -  
Max Temperature 55 °F 34 °F 60 °F (1982)
Min Temperature 30 °F 18 °F -4 °F (2002)
Degree Days  
Heating Degree Days 24    
Moisture  
Dew Point 40 °F    
Average Humidity 99    
Maximum Humidity 100    
Minimum Humidity 97    
Precipitation  
Precipitation 0.00 in - - ()
Sea Level Pressure  
Sea Level Pressure 29.93 in    
Wind  
Wind Speed 5 mph (SSE)    
Max Wind Speed 18 mph    
Max Gust Speed 25 mph    
Visibility 3 miles    
Events Fog , Rain    
Averages and records for this station are not official NWS values.
T = Trace of Precipitation, MM = Missing Value Source: NWS Daily Summary

Daily Weather History Graph

Daily Weather History Graph

Search for Another Location

Airport or City:

Trip Planner

Search our weather history database for the weather conditions in past years. The results will help you decide how hot, cold, wet, or windy it might be!

Date:

Astronomy

Dec. 03, 2012 Rise Set
Actual Time 7:59 AM EST 4:50 PM EST
Civil Twilight 7:25 AM EST 5:24 PM EST
Nautical Twilight 6:47 AM EST 6:02 PM EST
Astronomical Twilight 6:11 AM EST 6:38 PM EST
Moon 9:45 PM EST 11:14 AM EST
Length of Visible Light 9h 59m
Length of Day
8h 51m
Waning Gibbous, 78% of the Moon is Illuminated
Dec 3
Waning Gibbous
Dec 6
Last Quarter
Dec 13
New
Dec 20
First Quarter
Dec 28
Full

Hourly Weather History & Observations

Time (EST) Temp. Windchill Dew Point Humidity Pressure Visibility Wind Dir Wind Speed Gust Speed Precip Events Conditions
12:16 AM 32.7 °F - 32.7 °F 100% 30.07 in 2.5 mi Calm Calm - N/A   Clear
12:36 AM 32.5 °F - 32.5 °F 100% 30.08 in 4.0 mi Calm Calm - N/A   Clear
12:56 AM 32.0 °F - 32.0 °F 100% 30.08 in 7.0 mi Calm Calm - N/A   Clear
1:16 AM 32.0 °F - 32.0 °F 100% 30.08 in 7.0 mi Calm Calm - N/A   Clear
1:37 AM 31.8 °F - 31.8 °F 100% 30.09 in 5.0 mi Calm Calm - N/A   Clear
1:56 AM 32.0 °F - 32.0 °F 100% 30.08 in 5.0 mi Calm Calm - N/A   Clear
2:16 AM 31.6 °F - 31.6 °F 100% 30.09 in 3.0 mi Calm Calm - N/A   Clear
2:37 AM 31.5 °F - 31.5 °F 100% 30.09 in 4.0 mi Calm Calm - N/A   Clear
2:56 AM 30.2 °F - 30.2 °F 100% 30.09 in 2.0 mi Calm Calm - N/A   Clear
3:16 AM 30.7 °F - 30.7 °F 100% 30.09 in 2.5 mi Calm Calm - N/A   Clear
3:37 AM 30.0 °F - 30.0 °F 100% 30.10 in 4.0 mi Calm Calm - N/A   Clear
3:56 AM 30.2 °F - 30.2 °F 100% 30.09 in 4.0 mi Calm Calm - N/A   Clear
4:16 AM 31.1 °F - 31.1 °F 100% 30.08 in 4.0 mi Calm Calm - N/A   Mostly Cloudy
4:36 AM 31.5 °F - 31.5 °F 100% 30.08 in 5.0 mi Calm Calm - N/A   Overcast
4:56 AM 31.1 °F - 31.1 °F 100% 30.08 in 5.0 mi Calm Calm - N/A   Mostly Cloudy
5:17 AM 31.8 °F - 31.8 °F 100% 30.08 in 4.0 mi Calm Calm - N/A   Scattered Clouds
5:36 AM 31.6 °F - 31.6 °F 100% 30.08 in 5.0 mi Calm Calm - N/A   Mostly Cloudy
5:56 AM 31.5 °F - 31.5 °F 100% 30.07 in 5.0 mi Calm Calm - N/A   Mostly Cloudy
6:17 AM 31.8 °F 28.5 °F 31.8 °F 100% 30.07 in 5.0 mi SSE 3.5 mph - N/A   Mostly Cloudy
6:36 AM 33.4 °F 29.1 °F 33.4 °F 100% 30.07 in 7.0 mi SSE 4.6 mph - N/A   Overcast
6:56 AM 36.1 °F 31.4 °F 36.1 °F 100% 30.06 in 7.0 mi SSE 5.8 mph - N/A   Overcast
7:17 AM 37.2 °F 32.6 °F 37.2 °F 100% 30.06 in 7.0 mi SSE 5.8 mph - N/A   Overcast
7:36 AM 37.2 °F 33.6 °F 37.2 °F 100% 30.06 in 7.0 mi SSE 4.6 mph - N/A   Mostly Cloudy
7:56 AM 37.6 °F 34.0 °F 37.4 °F 99% 30.06 in 7.0 mi SSE 4.6 mph - N/A   Overcast
8:17 AM 38.3 °F 33.2 °F 37.8 °F 98% 30.06 in 7.0 mi SSE 6.9 mph - N/A   Overcast
8:36 AM 38.5 °F 32.1 °F 37.6 °F 97% 30.05 in 7.0 mi SSE 9.2 mph - N/A   Overcast
8:57 AM 38.8 °F 32.6 °F 37.9 °F 97% 30.05 in 7.0 mi SSE 9.2 mph 16.1 mph N/A   Overcast
9:16 AM 39.2 °F 32.5 °F 38.3 °F 97% 30.06 in 7.0 mi South 10.4 mph 18.4 mph N/A   Overcast
9:37 AM 39.2 °F 31.6 °F 38.3 °F 97% 30.06 in 7.0 mi SSE 12.7 mph 16.1 mph N/A   Overcast
10:16 AM 39.2 °F 32.5 °F 38.3 °F 97% 30.06 in 7.0 mi South 10.4 mph 17.3 mph N/A   Overcast
10:37 AM 39.6 °F 33.5 °F 38.8 °F 97% 30.06 in 5.0 mi South 9.2 mph 16.1 mph N/A   Overcast
10:56 AM 40.1 °F 35.3 °F 39.4 °F 97% 30.05 in 4.0 mi South 6.9 mph - N/A   Overcast
11:04 AM 40.1 °F 33.6 °F 39.4 °F 97% 30.05 in 4.0 mi South 10.4 mph - N/A   Overcast
11:47 AM 41.4 °F 36.8 °F 41.0 °F 99% 30.01 in 2.5 mi SE 6.9 mph - N/A   Overcast
11:54 AM 41.7 °F 36.7 °F 41.2 °F 98% 30.00 in 2.5 mi SE 8.1 mph - N/A   Overcast
12:16 PM 42.6 °F 37.2 °F 41.7 °F 97% 29.99 in 3.0 mi SE 9.2 mph - N/A   Overcast
12:36 PM 42.8 °F 36.6 °F 41.9 °F 97% 29.98 in 3.0 mi SE 11.5 mph 16.1 mph N/A   Overcast
12:57 PM 43.2 °F 37.0 °F 42.4 °F 97% 29.96 in 2.5 mi SE 11.5 mph 17.3 mph N/A   Overcast
1:16 PM 43.7 °F 37.3 °F 43.2 °F 98% 29.95 in 2.5 mi SE 12.7 mph 17.3 mph N/A   Overcast
1:36 PM 43.7 °F 37.3 °F 43.5 °F 99% 29.94 in 1.0 mi SE 12.7 mph 18.4 mph N/A   Overcast
2:16 PM 43.7 °F 36.6 °F 43.7 °F 100% 29.91 in 0.8 mi SE 15.0 mph 21.9 mph N/A Rain Light Rain
2:36 PM 43.7 °F 36.9 °F 43.7 °F 100% 29.90 in 1.0 mi SE 13.8 mph 24.2 mph N/A   Overcast
2:56 PM 43.7 °F 36.6 °F 43.7 °F 100% 29.88 in 1.5 mi SE 15.0 mph 24.2 mph N/A   Overcast
3:16 PM 43.9 °F 36.8 °F 43.9 °F 100% 29.88 in 2.0 mi SE 15.0 mph 23.0 mph N/A   Overcast
3:37 PM 43.9 °F 35.9 °F 43.9 °F 100% 29.88 in 2.0 mi SE 18.4 mph 25.3 mph N/A   Overcast
3:56 PM 43.9 °F 36.2 °F 43.9 °F 100% 29.86 in 1.2 mi SSE 17.3 mph 25.3 mph N/A   Overcast
4:17 PM 44.1 °F 37.4 °F 44.1 °F 100% 29.85 in 0.5 mi SE 13.8 mph 23.0 mph N/A Fog Fog
4:36 PM 44.1 °F 37.1 °F 44.1 °F 100% 29.85 in 0.5 mi SE 15.0 mph 20.7 mph N/A Fog Fog
4:56 PM 44.2 °F 38.0 °F 44.2 °F 100% 29.84 in 0.5 mi SE 12.7 mph 23.0 mph N/A Fog Fog
5:16 PM 44.6 °F 38.1 °F 44.6 °F 100% 29.84 in 0.8 mi SSE 13.8 mph 24.2 mph N/A   Overcast
5:36 PM 44.8 °F 38.0 °F 44.8 °F 100% 29.83 in 0.5 mi SE 15.0 mph 21.9 mph N/A Fog Fog
5:57 PM 45.0 °F 38.5 °F 45.0 °F 100% 29.81 in 0.5 mi SSE 13.8 mph 21.9 mph N/A   Unknown
6:16 PM 45.3 °F 38.4 °F 45.3 °F 100% 29.81 in 0.5 mi SSE 16.1 mph 23.0 mph N/A   Unknown
6:36 PM 45.5 °F 40.3 °F 45.5 °F 100% 29.80 in 0.5 mi SSE 10.4 mph 19.6 mph N/A   Unknown
6:57 PM 45.7 °F 39.1 °F 45.7 °F 100% 29.78 in 0.5 mi SSE 15.0 mph 23.0 mph N/A Rain Light Rain
7:16 PM 45.7 °F 39.5 °F 45.7 °F 100% 29.77 in 0.5 mi SSE 13.8 mph 20.7 mph N/A Rain Light Rain
7:36 PM 46.0 °F 40.2 °F 46.0 °F 100% 29.75 in 0.5 mi SSE 12.7 mph 23.0 mph N/A Fog Fog
7:57 PM 46.4 °F 40.4 °F 46.4 °F 100% 29.73 in 0.5 mi SSE 13.8 mph 20.7 mph N/A Fog Fog
8:16 PM 46.6 °F - 46.6 °F 100% 29.73 in 0.5 mi SSE 13.8 mph 23.0 mph N/A Fog Fog
8:36 PM 46.9 °F - 46.9 °F 100% 29.72 in 0.5 mi SSE 15.0 mph 21.9 mph N/A Fog Fog
8:57 PM 47.3 °F - 47.3 °F 100% 29.71 in 0.5 mi SSE 13.8 mph 19.6 mph N/A Fog Fog
9:16 PM 47.5 °F - 47.5 °F 100% 29.70 in 0.8 mi SSE 11.5 mph 19.6 mph N/A   Overcast
9:37 PM 47.7 °F - 47.7 °F 100% 29.68 in 0.8 mi SSE 12.7 mph 19.6 mph N/A   Overcast
9:56 PM 48.4 °F - 48.4 °F 100% 29.67 in 1.0 mi SSE 12.7 mph 21.9 mph N/A   Overcast
10:16 PM 48.6 °F - 48.6 °F 100% 29.67 in 0.8 mi SSE 12.7 mph 19.6 mph N/A   Overcast
10:37 PM 49.3 °F - 49.3 °F 100% 29.65 in 1.5 mi SSE 11.5 mph 17.3 mph N/A   Overcast
10:56 PM 50.0 °F - 50.0 °F 100% 29.64 in 1.8 mi SSE 10.4 mph 16.1 mph N/A   Overcast
11:16 PM 51.3 °F - 51.3 °F 100% 29.64 in 3.0 mi SSE 11.5 mph 17.3 mph N/A   Overcast
11:37 PM 52.3 °F - 52.3 °F 100% 29.63 in 4.0 mi South 12.7 mph 20.7 mph N/A   Overcast
11:56 PM 53.4 °F - 53.4 °F 100% 29.63 in 4.0 mi South 11.5 mph 17.3 mph N/A   Overcast